#timestamp,LO_Frequency,Hit,StdDev 
1507672815.4,286047000.2,N
1507672835.2,286047001.1,N
1507672855.0,286047000.1,N
1507672855.9,286047000.1,N
1507672875.8,286046997.7,N
1507672895.6,286046996.6,N
1507672915.4,286046999.6,N
1507672935.3,286047000.3,N
1507672955.1,286047002.1,N
1507672956.0,286047002.1,N
1507672975.8,286047000.5,N
1507672995.7,286046998.2,N
1507673015.5,286046998.7,N
1507673035.3,286047000.9,N
1507673055.2,286047000.3,N
1507673075.9,286047000.4,N
1507673095.7,286047002.5,N
1507673115.5,286047000.1,N
1507673135.4,286046999.9,N
1507673155.2,286047000.5,N
1507673175.0,286047002.0,N
1507673175.9,286047002.0,N
1507673195.8,286047004.1,N
1507673215.6,286047003.7,N
1507673235.4,286047002.5,N
1507673255.3,286047001.5,N
1507673275.1,286046996.6,N
1507673295.8,286046999.6,N
1507673315.7,286046997.1,N
1507673335.5,286046995.4,N
1507673355.3,286046996.5,N
1507673375.2,286047000.8,N
1507673395.9,286046999.2,N
1507673415.7,286046999.1,N
1507673435.6,286046996.2,N
1507673455.4,286047000.5,N
1507673475.2,286047001.3,N
1507673495.0,286047001.6,N
1507673496.0,286047001.6,N
1507673515.8,286047001.8,N
1507673535.6,286047004.0,N
1507673555.4,286046999.7,N
1507673575.3,286047000.7,N
1507673595.1,286047002.6,N
1507673615.8,286047004.4,N
1507673635.7,286047001.4,N
1507673655.5,286047001.1,N
1507673675.3,286047001.1,N
1507673695.2,286046996.8,N
1507673715.9,286046997.2,N
1507673735.7,286047005.8,N
1507673755.6,286047010.2,Y
1507673775.4,286047015.6,P
1507673795.2,286047018.2,N
1507673815.1,286047018.6,N
1507673816.0,286047018.6,N
1507673835.8,286047024.6,Y
1507673855.6,286047011.3,P
1507673875.5,286047010.5,P
1507673895.3,286047011.7,P
1507673915.1,286047010.9,Y
1507673935.9,286047004.0,P
1507673955.7,286047003.9,N
1507673975.5,286047003.6,N
1507673995.4,286047004.1,N
1507674015.2,286047004.3,N
1507674035.0,286047002.7,N
1507674035.9,286047002.7,N
1507674055.7,286047000.3,N
1507674075.6,286046996.9,N
1507674095.4,286046997.0,N
1507674115.2,286046998.2,N
1507674135.1,286046997.9,N
1507674136.0,286046997.9,N
1507674155.8,286046993.3,N
1507674175.6,286046995.2,N
1507674195.5,286046991.8,N
1507674215.3,286046988.9,N
1507674235.1,286046991.1,N
1507674255.9,286046989.9,N
1507674275.7,286046982.5,Y
1507674295.5,286046989.6,P
1507674315.4,286046988.5,N
1507674335.2,286046988.9,N
1507674355.0,286046993.8,N
1507674355.9,286046993.8,N
1507674375.8,286046993.5,N
1507674395.6,286047000.4,N
1507674415.4,286047002.4,N
1507674435.2,286047000.5,N
1507674455.1,286046996.4,N
1507674456.0,286046996.4,N
1507674475.8,286046992.3,N
1507674495.6,286046991.5,N
1507674515.5,286046987.4,N
1507674535.3,286046985.0,Y
1507674555.1,286046985.7,P
1507674575.9,286046982.4,P
1507674595.7,286046978.9,P
1507674615.5,286046980.3,Y
1507674635.4,286046993.7,P
1507674655.2,286046992.1,N
1507674675.0,286046990.3,N
1507674676.0,286046990.3,Y
1507674695.8,286047001.1,P
1507674715.6,286046998.6,N
1507674735.4,286046999.5,N
1507674755.3,286046997.1,N
1507674775.1,286046995.4,N
1507674795.8,286046999.5,N
1507674815.7,286046998.2,N
1507674835.5,286046999.0,N
1507674855.3,286046998.8,N
1507674875.2,286046998.3,N
1507674895.9,286046997.6,N
1507674915.7,286046996.3,N
1507674935.6,286046996.3,N
1507674955.4,286046997.8,N
1507674975.2,286046995.8,N
1507674995.1,286046997.9,N
1507674996.0,286046997.9,N
1507675015.8,286046998.0,N
1507675035.6,286046997.0,N
1507675055.4,286046998.0,N
1507675075.3,286046999.3,N
1507675095.1,286046999.3,N
1507675115.8,286047001.8,N
1507675135.7,286047004.2,N
1507675155.5,286047002.6,N
1507675175.3,286047002.4,N
1507675195.2,286047003.7,N
1507675215.9,286047005.3,N
1507675235.7,286047004.2,N
1507675255.6,286047005.4,N
1507675275.4,286047003.4,N
1507675295.2,286047007.1,N
1507675315.1,286047006.3,N
1507675316.0,286047006.3,N
1507675335.8,286047006.7,N
1507675355.6,286047007.1,N
1507675375.4,286047009.1,N
1507675395.3,286047006.3,N
1507675415.1,286047005.2,N
1507675435.8,286047005.9,N
1507675455.7,286047005.1,N
1507675475.5,286047005.7,N
1507675495.3,286047007.1,N
1507675515.2,286047008.8,N
1507675535.9,286047009.0,N
1507675555.7,286047006.9,N
1507675575.6,286047009.0,N
1507675595.4,286047009.7,N
1507675615.2,286047011.0,Y
1507675635.1,286047007.2,P
1507675636.0,286047007.2,P
1507675655.8,286047005.9,P
1507675675.6,286047004.0,Y
1507675695.5,286046998.1,P
1507675715.3,286046996.5,N
1507675735.1,286046994.9,N
1507675755.9,286046995.2,N
1507675775.7,286046995.3,N
1507675795.5,286046995.0,N
1507675815.4,286046995.4,N
1507675835.2,286046996.6,N
1507675855.0,286046998.1,N
1507675855.9,286046998.1,N
1507675875.8,286046999.4,N
1507675895.6,286046998.2,N
1507675915.4,286046998.0,N
1507675935.2,286046996.0,N
1507675955.1,286046997.2,N
1507675956.0,286046997.2,N
1507675975.8,286046999.1,N
1507675995.6,286047000.2,N
1507676015.5,286046998.5,N
1507676035.3,286046994.3,N
1507676055.1,286046988.9,Y
1507676075.9,286046999.1,P
1507676095.7,286047003.4,P
1507676115.5,286047015.3,P
1507676135.4,286047021.5,Y
1507676155.2,286047021.5,P
1507676175.0,286047023.4,N
1507676175.9,286047023.4,N
1507676195.8,286047026.0,Y
1507676215.6,286047011.9,P
1507676235.4,286047012.0,P
1507676255.3,286047006.9,N
1507676275.1,286047008.2,N
1507676276.0,286047008.2,N
1507676295.8,286047005.0,N
1507676315.7,286047005.9,N
1507676335.5,286047007.2,N
1507676355.3,286047002.6,N
1507676375.2,286046999.8,N
1507676395.9,286047000.3,N
